This is the latest recevied weather packets stored in our database for station/object N9BSW. If no packets are shown the sender has not sent any weather packets the latest 10 day(s).
| Time | Temp. | Humidity | Pressure | Rain* | Wind** | Luminosity | Snow |
|---|---|---|---|---|---|---|---|
| 1777944047 | 21.67° C | 46% | 1003.8 hPa | 0 mm | - | 0 W/m² | - |
| 1777943743 | 21.67° C | 47% | 1003.7 hPa | 0 mm | - | 0 W/m² | - |
| 1777943440 | 21.67° C | 46% | 1003.5 hPa | 0 mm | - | 0 W/m² | - |
| 1777943135 | 21.67° C | 46% | 1003.4 hPa | 0 mm | - | 0 W/m² | - |
| 1777942832 | 21.67° C | 47% | 1003.4 hPa | 0 mm | - | 0 W/m² | - |
| 1777942529 | 21.67° C | 46% | 1003.3 hPa | 0 mm | - | 0 W/m² | - |
| 1777942226 | 22.22° C | 46% | 1003.2 hPa | 0 mm | - | 1 W/m² | - |
| 1777941923 | 22.22° C | 46% | 1003.1 hPa | 0 mm | - | 2 W/m² | - |
| 1777941620 | 22.22° C | 45% | 1003 hPa | 0 mm | - | 4 W/m² | - |
| 1777941317 | 22.22° C | 46% | 1003.2 hPa | 0 mm | - | 7 W/m² | - |
| 1777941014 | 22.22° C | 45% | 1003 hPa | 0 mm | - | 11 W/m² | - |
| 1777940709 | 22.78° C | 45% | 1003.2 hPa | 0 mm | - | 17 W/m² | - |
| 1777940408 | 22.78° C | 46% | 1003.1 hPa | 0 mm | - | 23 W/m² | - |
| 1777940105 | 22.78° C | 45% | 1003.2 hPa | 0 mm | - | 28 W/m² | - |
| 1777939802 | 22.78° C | 46% | 1003.3 hPa | 0 mm | - | 34 W/m² | - |
| 1777939500 | 22.78° C | 45% | 1003.3 hPa | 0 mm | - | 39 W/m² | - |
| 1777939197 | 22.78° C | 45% | 1003.2 hPa | 0 mm | - | 45 W/m² | - |
| 1777938894 | 23.33° C | 45% | 1003.4 hPa | 0 mm | - | 48 W/m² | - |
| 1777938590 | 23.33° C | 45% | 1003.4 hPa | 0 mm | - | 51 W/m² | - |
| 1777938288 | 23.33° C | 45% | 1003.6 hPa | 0 mm | - | 50 W/m² | - |
| 1777937984 | 23.33° C | 44% | 1003.6 hPa | 0 mm | - | 54 W/m² | - |
| 1777937680 | 23.89° C | 44% | 1003.8 hPa | 0 mm | - | 65 W/m² | - |
| 1777937377 | 23.89° C | 44% | 1003.9 hPa | 0 mm | - | 81 W/m² | - |
| 1777937074 | 23.89° C | 44% | 1003.9 hPa | 0 mm | - | 94 W/m² | - |
| 1777936771 | 23.89° C | 43% | 1003.9 hPa | 0 mm | - | 97 W/m² | - |
* Rain latest hour (hover to see other rain measurements)
** Current wind speed in m/s (hover to see current wind gust speed)